Weather History for Agadir Al Massira, Morocco

Change the Weather History Date:

Monday, September 17, 2012

  Actual Average Record
Temperature  
Mean Temperature 72 °F -  
Max Temperature 82 °F - - ()
Min Temperature 63 °F - - ()
Cooling Degree Days 8    
Growing Degree Days 22 (Base 50)    
Moisture  
Dew Point 64 °F    
Average Humidity 76    
Maximum Humidity 88    
Minimum Humidity 46    
Precipitation  
Precipitation 0.00 in - - ()
Sea Level Pressure  
Sea Level Pressure 29.93 in    
Wind  
Wind Speed 5 mph ()    
Max Wind Speed 13 mph    
Max Gust Speed -    
Visibility 4.0 miles    
Events      
T = Trace of Precipitation, MM = Missing Value Source: Averaged Metar Reports

Daily Weather History Graph

Daily Weather History Graph

Search for Another Location

Airport:

Trip Planner

Search our weather history database for the weather conditions in past years. The results will help you decide how hot, cold, wet, or windy it might be!

Date:

Astronomy

Sep. 17, 2012 Rise Set
Actual Time 7:23 AM WEST 7:40 PM WEST
Civil Twilight 6:59 AM WEST 8:04 PM WEST
Nautical Twilight 6:31 AM WEST 8:32 PM WEST
Astronomical Twilight 6:02 AM WEST 9:00 PM WEST
Moon 8:45 AM WEST (9/17) 8:26 PM WEST (9/17)
Length of Visible Light 13h 04m
Length of Day
12h 16m
New Moon, 2% of the Moon is Illuminated
Sep 17
New Moon
Sep 22
First Quarter
Sep 30
Full
Oct 8
Last Quarter
Oct 15
New

Hourly Weather History & Observations

Time (WEST) Temp. Heat Index Dew Point Humidity Pressure Visibility Wind Dir Wind Speed Gust Speed Precip Events Conditions
12:00 AM 69.8 °F - 64.4 °F 83% 29.98 in 3.7 mi SE 3.5 mph - N/A   Scattered Clouds
1:00 AM 69 °F - 64 °F 77% 29.96 in 4 mi NE 2.3 mph - -   Mostly Cloudy
1:00 AM 68.0 °F - 64.4 °F 88% 29.95 in 3.7 mi NE 2.3 mph - N/A   Scattered Clouds
2:00 AM 66.2 °F - 62.6 °F 88% 29.95 in 6.2 mi East 2.3 mph - N/A   Scattered Clouds
3:00 AM 66.2 °F - 60.8 °F 83% 29.92 in 6.2 mi East 3.5 mph - N/A   Unknown
4:00 AM 66 °F - 62 °F 82% 29.92 in 4 mi Calm Calm - -   Partly Cloudy
4:00 AM 66.2 °F - 62.6 °F 88% 29.92 in 3.7 mi Calm Calm - N/A   Scattered Clouds
5:00 AM 64.4 °F - 60.8 °F 88% 29.89 in 6.2 mi East 3.5 mph - N/A   Scattered Clouds
6:00 AM 64.4 °F - 60.8 °F 88% 29.89 in 5.6 mi East 4.6 mph - N/A   Unknown
6:44 AM 64 °F - 61 °F 87% 29.90 in 5 mi East 5.8 mph - -   Partly Cloudy
7:00 AM 64.4 °F - 60.8 °F 88% 29.89 in 5.0 mi East 4.6 mph - N/A   Scattered Clouds
8:00 AM - - - N/A% 0.00 in - North - - N/A   Scattered Clouds
10:00 AM 72 °F - 64 °F 69% 29.94 in 4 mi WNW 5.8 mph - -   Scattered Clouds
10:00 AM 71.6 °F - 64.4 °F 78% 29.92 in 3.7 mi WNW 5.8 mph - N/A   Partly Cloudy
12:00 PM 78.8 °F - 64.4 °F 61% 29.95 in 3.7 mi West 11.5 mph - N/A   Partly Cloudy
1:00 PM 78 °F - 65 °F 55% 29.95 in 4 mi West 12.7 mph - -   Scattered Clouds
1:00 PM 78.8 °F - 64.4 °F 61% 29.95 in 3.7 mi West 11.5 mph - N/A   Partly Cloudy
2:00 PM 78.8 °F - 64.4 °F 61% 29.95 in 3.7 mi WSW 11.5 mph - N/A   Partly Cloudy
3:00 PM 80.6 °F 82.3 °F 64.4 °F 58% 29.92 in 3.7 mi West 12.7 mph - N/A   Partly Cloudy
4:00 PM 82 °F - 64 °F 46% 29.89 in 4 mi West 11.5 mph - -   Scattered Clouds
4:00 PM 82.4 °F 83.9 °F 64.4 °F 54% 29.89 in 3.7 mi WSW 10.4 mph - N/A   Partly Cloudy
5:00 PM 82.4 °F 83.9 °F 64.4 °F 54% 29.89 in 5.0 mi West 11.5 mph - N/A   Partly Cloudy
6:00 PM 77.0 °F - 64.4 °F 65% 29.89 in 5.0 mi West 12.7 mph - N/A   Partly Cloudy
7:00 PM 72 °F - 65 °F 72% 29.91 in 5 mi West 10.4 mph - -   Scattered Clouds
7:00 PM 75.2 °F - 64.4 °F 69% 29.89 in 5.0 mi WSW 10.4 mph - N/A   Partly Cloudy
7:39 PM 68.0 °F - 64.4 °F 88% 29.92 in 1.9 mi WSW 10.4 mph - N/A   Mostly Cloudy
7:59 PM 68.0 °F - 64.4 °F 88% 29.95 in 1.9 mi WSW 9.2 mph - N/A   Mostly Cloudy
8:00 PM - - - N/A% 0.00 in - North - - N/A   Mostly Cloudy
9:00 PM 68.0 °F - 64.4 °F 88% 29.95 in 1.2 mi SW 6.9 mph - N/A   Overcast
10:00 PM 69 °F - 65 °F 82% 29.99 in 2 mi SSW 5.8 mph - -   Mist
10:00 PM 68.0 °F - 64.4 °F 88% 29.98 in 1.9 mi SSW 5.8 mph - N/A   Overcast
10:35 PM 68.0 °F - 64.4 °F 88% 30.01 in 3.1 mi SW 4.6 mph - N/A   Mostly Cloudy
11:00 PM 68.0 °F - 64.4 °F 88% 30.01 in 3.1 mi SW 4.6 mph - N/A   Mostly Cloudy